[[[{"header":{"parameterUnit":"kt","parameterCategory":2,"dx":1,"dy":1,"la1":30.253999710083008,"la2":30.299108505249023,"lo1":-89.0895004272461,"lo2":-89.04439544677734,"nx":28,"ny":28,"refTime":"2022-10-14T21:00:00:Z","depth":0,"parameterNumber":1,"parameterNumberName":"U-component_of_WINDS"},"data":[-1.2056,-1.2097,-1.2089,-1.2133,-1.2133,-1.2162,-1.217,-1.2179,-1.2185,-1.222,-1.2239,-1.2235,-1.2239,-1.2261,-1.2282,-1.228,-1.2291,-1.2311,-1.2306,-1.2221,-1.2209,-1.2197,-1.2187,-1.2312,-1.2313,-1.2397,-1.2398,-1.2398,-1.1995,-1.1995,-1.2015,-1.203,-1.2047,-1.2023,-1.2033,-1.205,-1.2077,-1.2084,-1.2102,-1.2132,-1.2155,-1.2152,-1.2174,-1.2194,-1.2186,-1.2201,-1.2201,-1.2203,-1.211,-1.21,-1.2208,-1.2208,-1.2208,-1.2208,-1.2208,-1.2208,-1.1881,-1.1906,-1.191,-1.1932,-1.1937,-1.1947,-1.197,-1.1965,-1.1985,-1.2006,-1.1992,-1.2023,-1.203,-1.2052,-1.2058,-1.2083,-1.2065,-1.208,-1.2085,-1.209,-1.2097,-1.198,-1.2086,-1.2086,-1.2085,-1.2085,-1.2085,0,-1.1797,-1.1788,-1.1807,-1.1823,-1.1839,-1.1851,-1.1861,-1.1875,-1.1855,-1.1874,-1.1899,-1.1913,-1.194,-1.1965,-1.1983,-1.1986,-1.1966,-1.1962,-1.1973,-1.1982,-1.1987,-1.1987,-1.184,-1.1959,-1.1958,-1.1958,-1.1957,-1.1957,-1.1684,-1.1713,-1.1713,-1.1727,-1.1731,-1.1754,-1.1767,-1.1747,-1.1762,-1.1772,-1.1795,-1.1818,-1.1837,-1.188,-1.1876,-1.1897,-1.1888,-1.1935,-1.1891,-1.1897,-1.1892,-1.1892,-1.1895,-1.1945,-1.1946,-1.1947,-1.1948,0,-1.1622,-1.1609,-1.1651,-1.1648,-1.1648,-1.168,-1.1679,-1.1703,-1.1695,-1.1728,-1.1735,-1.1724,-1.175,-1.1738,-1.1766,-1.1759,-1.1815,-1.1804,-1.1813,-1.1811,-1.1854,-1.1851,-1.1989,-1.2007,-1.1874,-1.1876,-1.1877,0,-1.1523,-1.1561,-1.1539,-1.1565,-1.1607,-1.1586,-1.163,-1.1628,-1.1632,-1.1658,-1.163,-1.1655,-1.1635,-1.1659,-1.1649,-1.1692,-1.1696,-1.1695,-1.1692,-1.1699,-1.17,-1.1709,-1.1705,-1.1682,-1.1681,-1.168,-1.168,0,-1.143,-1.1462,-1.1503,-1.1508,-1.151,-1.153,-1.1531,-1.1536,-1.1549,-1.1563,-1.1572,-1.1591,-1.1602,-1.1617,-1.1605,-1.1576,-1.1656,-1.1614,-1.1655,-1.1655,-1.1676,-1.1675,-1.1798,-1.1679,-1.1679,-1.1679,-1.1678,0,-1.1348,-1.1362,-1.1422,-1.1422,-1.1432,-1.1459,-1.1475,-1.1495,-1.1502,-1.1498,-1.1509,-1.149,-1.1525,-1.1484,-1.1532,-1.1498,-1.1511,-1.1512,-1.1515,-1.152,-1.1476,-1.155,-1.1665,-1.1679,-1.1521,-1.152,-1.1519,0,-1.1247,-1.1303,-1.1285,-1.1343,-1.1368,-1.1336,-1.1365,-1.1372,-1.1367,-1.1389,-1.1384,-1.1409,-1.1375,-1.1382,-1.1407,-1.1404,-1.1448,-1.1397,-1.1433,-1.1434,-1.1434,-1.1539,-1.1561,-1.1641,-1.1502,-1.1503,-1.1505,0,-1.1167,-1.1167,-1.1178,-1.1184,-1.1189,-1.1209,-1.1242,-1.1262,-1.1277,-1.1287,-1.1316,-1.1349,-1.1326,-1.1337,-1.1323,-1.135,-1.1418,-1.1323,-1.1323,-1.1342,-1.1491,-1.1512,-1.1525,-1.1403,-1.1405,-1.1407,-1.1491,0,-1.1052,-1.1077,-1.1107,-1.112,-1.1133,-1.1168,-1.1154,-1.117,-1.1155,-1.115,-1.1191,-1.1194,-1.1215,-1.1226,-1.1212,-1.1277,-1.1265,-1.124,-1.1202,-1.127,-1.1298,-1.1309,-1.1162,-1.116,-1.1159,-1.1159,0,0,-1.096,-1.0996,-1.0976,-1.1007,-1.1017,-1.0983,-1.1022,-1.1028,-1.1042,-1.105,-1.1028,-1.1076,-1.108,-1.1132,-1.1152,-1.1159,-1.1171,-1.1147,-1.1237,-1.1246,-1.1254,-1.1284,-1.1296,-1.1157,-1.1156,-1.1156,-1.1156,0,-1.0915,-1.0916,-1.0954,-1.0959,-1.0965,-1.0957,-1.0966,-1.0968,-1.0966,-1.1006,-1.0979,-1.1002,-1.1041,-1.1049,-1.1058,-1.114,-1.112,-1.1147,-1.1196,-1.1227,-1.1237,-1.1246,-1.1278,-1.1289,-1.1153,-1.1153,-1.1153,0,-1.0836,-1.0836,-1.0852,-1.0872,-1.0876,-1.0902,-1.0858,-1.0887,-1.0906,-1.087,-1.091,-1.091,-1.0919,-1.0969,-1.0991,-1.0972,-1.1075,-1.1039,-1.1045,-1.1048,-1.1078,-1.109,-1.1101,-1.0959,-1.0958,-1.0957,0,0,-1.08,-1.0823,-1.0818,-1.0861,-1.0866,-1.0855,-1.0867,-1.0854,-1.0861,-1.0865,-1.0865,-1.0874,-1.0897,-1.0912,-1.0932,-1.0988,-1.099,-1.1016,-1.1025,-1.1032,-1.104,-1.1071,-1.1083,-1.0955,-1.0955,-1.0955,0,0,-1.0783,-1.0778,-1.0762,-1.081,-1.0818,-1.0817,-1.0845,-1.0825,-1.0841,-1.0836,-1.0817,-1.0819,-1.0865,-1.0866,-1.0836,-1.0919,-1.0881,-1.0888,-1.0917,-1.0928,-1.0937,-1.0937,-1.0793,0,0,0,0,0,-1.0731,-1.0778,-1.0764,-1.077,-1.0795,-1.0824,-1.0828,-1.0812,-1.0786,-1.0808,-1.0805,-1.0782,-1.0846,-1.0819,-1.0826,-1.0861,-1.0925,-1.093,-1.0935,-1.0985,-1.0997,-1.1007,0,0,0,0,0,0,-1.0733,-1.074,-1.0762,-1.0763,-1.0768,-1.0822,-1.0775,-1.0772,-1.0783,-1.0778,-1.0783,-1.0782,-1.077,-1.0814,-1.0821,-1.0854,-1.0791,-1.0927,-1.0931,-1.0935,-1.0989,-1.0999,-1.1008,0,0,0,0,0,-1.0735,-1.0741,-1.0785,-1.0762,-1.0767,-1.0757,-1.0773,-1.077,-1.0778,-1.0774,-1.0772,-1.0765,-1.0772,-1.0776,-1.0818,-1.0852,-1.0786,-1.0788,-1.093,-1.0933,-1.0936,-1.0994,0,0,0,0,0,0,-1.0736,-1.0739,-1.0786,-1.0787,-1.0743,-1.0754,-1.0755,-1.0768,-1.0773,-1.0772,-1.0755,-1.0751,-1.0773,-1.0776,-1.078,-1.0852,-1.0782,-1.0785,-1.0786,-1.0932,-1.0935,-1.0938,0,0,0,0,0,0,-1.0736,-1.074,-1.0787,-1.0763,-1.0761,-1.0751,-1.0752,-1.0785,-1.0774,-1.0754,-1.0751,-1.0753,-1.0768,-1.0777,-1.0779,-1.0832,-1.0779,-1.0782,-1.0783,-1.0784,-1.0935,-1.0937,0,0,0,0,0,0,-1.0737,-1.0741,-1.0763,-1.0761,-1.076,-1.0769,-1.078,-1.0808,-1.0752,-1.0754,-1.0747,-1.0744,-1.0769,-1.0772,-1.0779,-1.0831,-1.0832,-1.0779,-1.0781,-1.0782,-1.0783,0,0,0,0,0,0,0,-1.0738,-1.0717,-1.078,-1.076,-1.0758,-1.0796,-1.0796,-1.0796,-1.0751,-1.0749,-1.0747,-1.0745,-1.0765,-1.0768,-1.0771,-1.083,0,0,-1.0779,-1.078,0,0,0,0,0,0,0,0,-1.0715,-1.0716,-1.078,-1.0781,-1.0781,-1.0796,-1.0796,-1.0796,-1.0751,-1.0749,-1.0748,-1.0746,-1.0766,-1.0768,-1.077,0,0,0,0,0,0,0,0,0,0,0,0,0,0,0,-1.078,-1.0781,0,-1.0796,-1.0796,-1.0796,-1.0751,-1.0749,-1.0748,-1.0747,-1.0767,-1.0768,-1.077,0,0,0,0,0,0,0,0,0,0,0,0,0,0,0,0,0,0,0,0,0,0,0,0,0,0,0,0,0,0,0,0,0,0,0,0,0,0,0,0,0,0,0,0,0,0,0,0,0,0,0,0,0,0,0,0,0,0,0,0,0,0,0,0,0,0,0,0,0]}],[{"header":{"parameterUnit":"kt","parameterCategory":2,"dx":1,"dy":1,"la1":30.253999710083008,"la2":30.299108505249023,"lo1":-89.0895004272461,"lo2":-89.04439544677734,"nx":28,"ny":28,"refTime":"2022-10-14T21:00:00:Z","depth":0,"parameterNumber":2,"parameterNumberName":"V-component_of_WINDS"},"data":[3.1919,3.1913,3.1887,3.1866,3.1839,3.182,3.1804,3.1781,3.1755,3.1727,3.1706,3.1678,3.164,3.1607,3.1581,3.1568,3.1558,3.1574,3.1556,3.1512,3.1504,3.1496,3.1496,3.1573,3.1573,3.1605,3.1605,3.1605,3.1884,3.1858,3.1841,3.1806,3.179,3.1758,3.1727,3.1715,3.1698,3.1667,3.1646,3.1618,3.1593,3.155,3.152,3.1513,3.1496,3.1507,3.1506,3.15,3.1452,3.1452,3.1521,3.1521,3.1521,3.1521,3.1521,3.1521,3.1813,3.1811,3.1775,3.1756,3.1731,3.1708,3.17,3.1666,3.1648,3.1616,3.1588,3.1568,3.1531,3.1483,3.146,3.1442,3.1425,3.1428,3.1428,3.1429,3.1433,3.1385,3.1436,3.1436,3.1436,3.1435,3.1435,0,3.1752,3.1731,3.1713,3.1687,3.1672,3.1649,3.1624,3.1618,3.1563,3.1551,3.1529,3.1512,3.1477,3.1452,3.1419,3.1395,3.1359,3.1354,3.1355,3.1367,3.1381,3.1371,3.1292,3.1352,3.1352,3.1351,3.1351,3.135,3.1676,3.1678,3.1629,3.162,3.16,3.1586,3.1572,3.1524,3.1511,3.1472,3.1471,3.1447,3.1425,3.1394,3.1354,3.1327,3.131,3.1335,3.1305,3.1316,3.1306,3.1306,3.1304,3.1342,3.1343,3.1344,3.1344,0,3.1635,3.1594,3.1589,3.154,3.1528,3.1531,3.1488,3.1484,3.1452,3.1441,3.1436,3.1386,3.1365,3.1321,3.1289,3.1265,3.1265,3.125,3.1276,3.127,3.1286,3.1284,3.1353,3.1357,3.128,3.1281,3.1282,0,3.1553,3.1558,3.1495,3.1495,3.1497,3.1449,3.1452,3.1425,3.1395,3.1386,3.134,3.1332,3.1277,3.1262,3.1229,3.1221,3.1216,3.1197,3.1187,3.12,3.1202,3.119,3.1186,3.117,3.117,3.1169,3.1169,0,3.1492,3.1465,3.1464,3.1451,3.14,3.14,3.1379,3.1345,3.1332,3.1308,3.1298,3.1274,3.126,3.1241,3.1198,3.1179,3.1189,3.1154,3.1169,3.117,3.1173,3.1173,3.1245,3.1169,3.1169,3.1169,3.1168,0,3.1419,3.1398,3.1403,3.1359,3.1354,3.1354,3.1326,3.1316,3.1283,3.1263,3.1244,3.1208,3.12,3.1168,3.1155,3.1142,3.1131,3.1112,3.1113,3.1108,3.1073,3.1117,3.1193,3.1198,3.1104,3.1104,3.1103,0,3.1358,3.1354,3.1313,3.1319,3.1311,3.126,3.1258,3.1232,3.1204,3.1191,3.116,3.1147,3.1114,3.1104,3.1103,3.107,3.1087,3.1067,3.1045,3.1045,3.1053,3.1123,3.1144,3.1182,3.1096,3.1097,3.1097,0,3.1306,3.1247,3.1251,3.1233,3.1193,3.1187,3.1185,3.1162,3.1156,3.1133,3.1128,3.111,3.1083,3.1068,3.1037,3.1039,3.1074,3.101,3.1008,3.1021,3.109,3.111,3.1116,3.1052,3.1053,3.1054,3.1092,0,3.12,3.1194,3.1205,3.1171,3.116,3.1163,3.1118,3.1111,3.1083,3.1054,3.1049,3.1017,3.0994,3.0991,3.0964,3.0984,3.0973,3.0946,3.0911,3.0958,3.0969,3.0974,3.0898,3.0897,3.0896,3.0895,0,0,3.1151,3.1141,3.1099,3.1097,3.1084,3.1033,3.1039,3.1021,3.0986,3.0978,3.0958,3.0928,3.0904,3.0902,3.0914,3.0906,3.0904,3.089,3.0937,3.0942,3.0946,3.0959,3.0965,3.0893,3.0892,3.0892,3.0892,0,3.1103,3.1082,3.109,3.107,3.1038,3.1008,3.101,3.0969,3.0951,3.0948,3.0905,3.0896,3.0876,3.0854,3.0841,3.0889,3.0856,3.0886,3.0926,3.0928,3.0934,3.094,3.0954,3.096,3.0889,3.0889,3.0889,0,3.1042,3.1012,3.1013,3.0985,3.0964,3.0958,3.091,3.0907,3.0901,3.0845,3.0842,3.0819,3.0788,3.0794,3.0795,3.0777,3.0815,3.0797,3.0803,3.0802,3.0801,3.0809,3.0816,3.0725,3.0724,3.0724,0,0,3.1006,3.1001,3.0956,3.0971,3.0961,3.0917,3.091,3.0881,3.0855,3.0845,3.0815,3.0791,3.0777,3.077,3.0756,3.077,3.0758,3.0779,3.0787,3.0793,3.0796,3.0797,3.0805,3.0722,3.0722,3.0722,0,0,3.0989,3.0937,3.0913,3.0926,3.0903,3.0859,3.0869,3.0838,3.0822,3.0816,3.0767,3.0759,3.0764,3.0743,3.0729,3.0742,3.0709,3.0711,3.0755,3.0765,3.0772,3.0776,3.0675,0,0,0,0,0,3.0918,3.0943,3.0922,3.0918,3.0883,3.087,3.0865,3.0826,3.0802,3.0811,3.078,3.0747,3.0724,3.071,3.0706,3.0723,3.0703,3.0707,3.071,3.077,3.078,3.0788,0,0,0,0,0,0,3.0916,3.0911,3.0921,3.0879,3.0871,3.0869,3.082,3.0809,3.08,3.0793,3.0754,3.0745,3.0711,3.0709,3.0706,3.0723,3.0676,3.0705,3.0707,3.071,3.0773,3.0781,3.0788,0,0,0,0,0,3.0914,3.091,3.0865,3.0878,3.0871,3.0824,3.0818,3.0809,3.0801,3.0755,3.0746,3.0772,3.0713,3.0707,3.0707,3.0726,3.0678,3.0677,3.0706,3.0709,3.0711,3.0777,0,0,0,0,0,0,3.0912,3.0901,3.0862,3.0859,3.0866,3.0823,3.0815,3.081,3.0763,3.0754,3.0771,3.0767,3.0714,3.071,3.0706,3.0729,3.0679,3.0678,3.0678,3.0708,3.071,3.0712,0,0,0,0,0,0,3.0903,3.0898,3.086,3.0847,3.0842,3.0823,3.0816,3.0811,3.0763,3.0781,3.0776,3.077,3.072,3.0712,3.0708,3.0702,3.068,3.0679,3.0679,3.0678,3.071,3.0711,0,0,0,0,0,0,3.09,3.0896,3.0848,3.0844,3.0839,3.0794,3.0817,3.0784,3.0753,3.0784,3.0749,3.0747,3.0722,3.0718,3.071,3.0706,3.0703,3.068,3.068,3.0679,3.0679,0,0,0,0,0,0,0,3.0898,3.0935,3.0885,3.0841,3.0836,3.0824,3.0823,3.0822,3.0752,3.0751,3.0749,3.0748,3.0686,3.0685,3.0684,3.0709,0,0,3.068,3.068,0,0,0,0,0,0,0,0,3.0935,3.0935,3.0885,3.0884,3.0883,3.0824,3.0823,3.0822,3.0752,3.0751,3.0749,3.0748,3.0685,3.0685,3.0684,0,0,0,0,0,0,0,0,0,0,0,0,0,0,0,3.0884,3.0884,0,3.0824,3.0823,3.0822,3.0752,3.0751,3.075,3.0749,3.0685,3.0684,3.0684,0,0,0,0,0,0,0,0,0,0,0,0,0,0,0,0,0,0,0,0,0,0,0,0,0,0,0,0,0,0,0,0,0,0,0,0,0,0,0,0,0,0,0,0,0,0,0,0,0,0,0,0,0,0,0,0,0,0,0,0,0,0,0,0,0,0,0,0,0]}]]]